NATO41 EGPH-EGXC

Flight info

Callsign NATO41
Flight time N/A
Altitude 17500
Route EGPH DCT LEE DCT GAM DCT CWZ DCT CGY DCT EGXC/07
Aircraft F35/M-SBDGRY/S

Departure

Time 2026-04-23 17:11
Airport Edinburgh Airport (EGPH)

Arrival

Time N/A
Airport RAF Coningsby (EGXC)
Time Latitude Longitude Altitude Speed Heading
2026-04-23 17:04 55.94977 -3.34773 107 ft 0 kts 27°
2026-04-23 17:07 55.94992 -3.34763 108 ft 3 kts
2026-04-23 17:07 55.94967 -3.34833 107 ft 21 kts 188°
2026-04-23 17:07 55.94841 -3.34957 111 ft 22 kts 271°
2026-04-23 17:07 55.94935 -3.35302 109 ft 40 kts 299°
2026-04-23 17:08 55.95062 -3.35763 106 ft 40 kts 269°
2026-04-23 17:08 55.95131 -3.36206 106 ft 36 kts 282°
2026-04-23 17:08 55.95043 -3.36554 110 ft 29 kts 239°
2026-04-23 17:08 55.94940 -3.36858 108 ft 29 kts 239°
2026-04-23 17:09 55.94832 -3.37174 107 ft 30 kts 238°
2026-04-23 17:09 55.94728 -3.37481 111 ft 28 kts 239°
2026-04-23 17:09 55.94631 -3.37767 115 ft 27 kts 239°
2026-04-23 17:09 55.94533 -3.38059 113 ft 29 kts 239°
2026-04-23 17:10 55.94414 -3.38408 114 ft 36 kts 238°
2026-04-23 17:10 55.94282 -3.38807 120 ft 26 kts 249°
2026-04-23 17:10 55.94325 -3.38907 120 ft 13 kts 330°
2026-04-23 17:10 55.94416 -3.38962 120 ft 10 kts 37°
2026-04-23 17:11 55.94429 -3.38931 120 ft 0 kts 58°
2026-04-23 17:11 55.94802 -3.37835 134 ft 233 kts 58°
2026-04-23 17:11 55.95745 -3.35083 3253 ft 135 kts 63°
2026-04-23 17:12 55.94428 -3.33602 8143 ft 347 kts 161°
2026-04-23 17:12 55.91590 -3.31914 11557 ft 540 kts 163°
2026-04-23 17:12 55.87779 -3.29397 12194 ft 555 kts 161°
2026-04-23 17:12 55.84300 -3.27299 12746 ft 526 kts 161°
2026-04-23 17:13 55.80866 -3.24852 13284 ft 532 kts 156°
2026-04-23 17:13 55.77557 -3.21899 13834 ft 511 kts 151°
2026-04-23 17:13 55.74832 -3.18855 14474 ft 425 kts 145°
2026-04-23 17:13 55.72487 -3.15545 15204 ft 431 kts 139°
2026-04-23 17:14 55.70326 -3.11796 15959 ft 437 kts 133°
2026-04-23 17:14 55.68363 -3.07665 16731 ft 439 kts 128°
2026-04-23 17:14 55.66573 -3.03225 17443 ft 446 kts 127°
2026-04-23 17:14 55.64473 -2.99260 17789 ft 476 kts 140°
2026-04-23 17:15 55.61615 -2.95629 17924 ft 509 kts 147°
2026-04-23 17:15 55.58579 -2.92448 17949 ft 508 kts 151°
2026-04-23 17:15 55.55466 -2.89465 17946 ft 506 kts 152°
2026-04-23 17:15 55.52334 -2.86563 17960 ft 508 kts 153°
2026-04-23 17:16 55.49202 -2.83698 17954 ft 508 kts 153°
2026-04-23 17:16 55.46064 -2.80837 17949 ft 507 kts 153°
2026-04-23 17:16 55.42995 -2.77761 17951 ft 508 kts 147°
2026-04-23 17:16 55.40075 -2.74240 17951 ft 508 kts 146°
2026-04-23 17:17 55.37084 -2.70912 17963 ft 508 kts 149°
2026-04-23 17:17 55.34097 -2.67593 17945 ft 509 kts 147°
2026-04-23 17:17 55.32133 -2.65335 17948 ft 509 kts 147°
2026-04-23 17:17 55.28133 -2.60888 17945 ft 510 kts 148°
2026-04-23 17:18 55.22197 -2.54236 17934 ft 510 kts 148°
2026-04-23 17:18 55.19166 -2.50874 17938 ft 508 kts 148°
2026-04-23 17:18 55.16217 -2.47587 17931 ft 510 kts 148°
2026-04-23 17:19 55.13227 -2.44268 17923 ft 509 kts 148°
2026-04-23 17:19 55.10233 -2.40954 17929 ft 509 kts 148°
2026-04-23 17:19 55.07248 -2.37650 17925 ft 510 kts 148°
2026-04-23 17:19 55.04244 -2.34334 17930 ft 510 kts 148°
2026-04-23 17:20 55.01252 -2.31037 17932 ft 510 kts 148°
2026-04-23 17:20 54.95235 -2.24423 17946 ft 510 kts 148°
2026-04-23 17:21 54.89239 -2.17857 17947 ft 511 kts 148°
2026-04-23 17:21 54.86224 -2.14563 17950 ft 510 kts 148°
2026-04-23 17:21 54.80209 -2.08012 17965 ft 510 kts 148°
2026-04-23 17:22 54.77192 -2.04733 17975 ft 511 kts 148°
2026-04-23 17:22 54.36038 -1.60783 17960 ft 27183 kts 148°
2026-04-23 17:23 53.30978 -0.44686 6843 ft 486 kts 180°
2026-04-23 17:23 53.28357 -0.44868 6618 ft 426 kts 185°
2026-04-23 17:23 53.23227 -0.47647 5003 ft 365 kts 202°
2026-04-23 17:24 53.20950 -0.49157 3773 ft 324 kts 180°
2026-04-23 17:24 53.18724 -0.48620 2905 ft 308 kts 169°
2026-04-23 17:24 53.17293 -0.52735 2548 ft 248 kts 278°
2026-04-23 17:25 53.16904 -0.57987 2942 ft 213 kts 204°
2026-04-23 17:25 53.15524 -0.58951 2870 ft 213 kts 199°
2026-04-23 17:26 53.13472 -0.57422 2410 ft 197 kts 109°
2026-04-23 17:26 53.14216 -0.53961 899 ft 192 kts 25°
2026-04-23 17:27 53.16113 -0.52719 231 ft 74 kts 22°
2026-04-23 17:27 53.16437 -0.52496 230 ft 44 kts 23°
2026-04-23 17:27 53.16662 -0.52398 230 ft 12 kts 293°
2026-04-23 17:27 53.16641 -0.52494 232 ft 12 kts 245°
2026-04-23 17:28 53.16596 -0.52636 232 ft 14 kts 245°
2026-04-23 17:28 53.16550 -0.52799 234 ft 11 kts 248°
2026-04-23 17:28 53.16576 -0.52833 234 ft 10 kts 350°
2026-04-23 17:28 53.16652 -0.52851 233 ft 10 kts 352°
2026-04-23 17:29 53.16706 -0.52862 234 ft 0 kts 353°
2026-04-23 17:29 53.16793 -0.52892 236 ft 26 kts 350°
2026-04-23 17:30 53.16817 -0.52899 237 ft 0 kts 350°
2026-04-23 17:32 53.16998 -0.52687 235 ft 0 kts 31°
2026-04-23 17:42 53.17020 -0.52642 -746 ft 23 kts 73°
2026-04-23 17:43 53.17030 -0.52312 -3150 ft 0 kts 72°
2026-04-23 17:43 53.17275 -0.51435 229 ft 0 kts 148°
2026-04-23 17:44 53.17274 -0.51433 229 ft 0 kts 148°